DLH422 LPMA-GCLA

Flight info

Callsign DLH422
Flight time N/A
Altitude 37000
Route GOSGA DCT ORTIS
Aircraft A320/M-SDE3FGHIRWY/LB1

Departure

Time N/A
Airport Cristiano Ronaldo International Airport (LPMA)

Arrival

Time 2026-04-30 22:17
Airport La Palma Airport (GCLA)
Time Latitude Longitude Altitude Speed Heading
2026-04-30 21:48 30.00496 -16.41415 37171 ft 436 kts 182°
2026-04-30 21:48 29.94440 -16.40812 37174 ft 436 kts 182°
2026-04-30 21:49 29.88389 -16.40211 37159 ft 436 kts 181°
2026-04-30 21:49 29.82338 -16.39594 37175 ft 436 kts 181°
2026-04-30 21:50 29.76309 -16.38989 37180 ft 435 kts 181°
2026-04-30 21:50 29.70277 -16.38399 36989 ft 435 kts 181°
2026-04-30 21:51 29.67259 -16.38106 36730 ft 434 kts 181°
2026-04-30 21:51 29.64238 -16.37911 36473 ft 429 kts 188°
2026-04-30 21:51 29.61341 -16.38251 36226 ft 420 kts 198°
2026-04-30 21:51 29.58551 -16.39161 35978 ft 413 kts 207°
2026-04-30 21:52 29.55973 -16.40583 35727 ft 406 kts 216°
2026-04-30 21:52 29.53689 -16.42424 35309 ft 396 kts 224°
2026-04-30 21:52 29.51571 -16.44434 34814 ft 393 kts 224°
2026-04-30 21:52 29.49494 -16.46398 34321 ft 390 kts 224°
2026-04-30 21:53 29.47401 -16.48370 33795 ft 387 kts 224°
2026-04-30 21:53 29.45324 -16.50319 33297 ft 383 kts 224°
2026-04-30 21:53 29.43266 -16.52248 32824 ft 379 kts 224°
2026-04-30 21:53 29.41252 -16.54141 32356 ft 376 kts 224°
2026-04-30 21:54 29.39239 -16.56035 31885 ft 372 kts 224°
2026-04-30 21:54 29.37244 -16.57913 31413 ft 369 kts 224°
2026-04-30 21:54 29.35258 -16.59784 30767 ft 371 kts 224°
2026-04-30 21:54 29.33259 -16.61666 30175 ft 371 kts 224°
2026-04-30 21:55 29.31266 -16.63535 29656 ft 368 kts 224°
2026-04-30 21:55 29.29292 -16.65385 29124 ft 365 kts 224°
2026-04-30 21:55 29.27332 -16.67225 28605 ft 361 kts 224°
2026-04-30 21:55 29.25412 -16.69024 28097 ft 358 kts 224°
2026-04-30 21:56 29.23493 -16.70823 27561 ft 355 kts 224°
2026-04-30 21:56 29.21588 -16.72607 26932 ft 352 kts 224°
2026-04-30 21:56 29.19704 -16.74370 26328 ft 348 kts 224°
2026-04-30 21:56 29.17833 -16.76121 25741 ft 345 kts 224°
2026-04-30 21:57 29.15980 -16.77851 25167 ft 342 kts 224°
2026-04-30 21:57 29.14146 -16.79565 24613 ft 339 kts 224°
2026-04-30 21:57 29.12328 -16.81265 24064 ft 335 kts 224°
2026-04-30 21:57 29.10528 -16.82948 23484 ft 333 kts 224°
2026-04-30 21:58 29.08743 -16.84613 22854 ft 330 kts 224°
2026-04-30 21:58 29.06988 -16.86250 22271 ft 327 kts 224°
2026-04-30 21:58 29.05225 -16.87891 21681 ft 325 kts 224°
2026-04-30 21:58 29.03477 -16.89520 21123 ft 323 kts 224°
2026-04-30 21:59 29.01744 -16.91134 20542 ft 321 kts 223°
2026-04-30 21:59 29.00017 -16.92741 19978 ft 319 kts 223°
2026-04-30 21:59 28.98296 -16.94346 19453 ft 317 kts 223°
2026-04-30 22:00 28.94907 -16.97505 18442 ft 314 kts 223°
2026-04-30 22:00 28.91539 -17.00634 17350 ft 310 kts 223°
2026-04-30 22:00 28.89867 -17.02187 16839 ft 308 kts 223°
2026-04-30 22:01 28.88233 -17.03707 16343 ft 306 kts 222°
2026-04-30 22:01 28.86582 -17.05239 15856 ft 304 kts 222°
2026-04-30 22:01 28.84944 -17.06758 15387 ft 303 kts 222°
2026-04-30 22:01 28.83317 -17.08268 15003 ft 298 kts 221°
2026-04-30 22:02 28.81717 -17.09751 14645 ft 293 kts 221°
2026-04-30 22:02 28.80138 -17.11209 14296 ft 289 kts 221°
2026-04-30 22:02 28.78591 -17.12642 13947 ft 290 kts 221°
2026-04-30 22:02 28.77021 -17.14095 13562 ft 290 kts 221°
2026-04-30 22:03 28.75452 -17.15549 13095 ft 292 kts 221°
2026-04-30 22:03 28.73874 -17.17014 12703 ft 292 kts 221°
2026-04-30 22:03 28.72300 -17.18473 12327 ft 290 kts 221°
2026-04-30 22:03 28.70732 -17.19923 11943 ft 289 kts 220°
2026-04-30 22:04 28.69173 -17.21363 11580 ft 288 kts 220°
2026-04-30 22:04 28.67646 -17.22773 11240 ft 286 kts 220°
2026-04-30 22:04 28.64566 -17.25615 10553 ft 282 kts 220°
2026-04-30 22:05 28.63038 -17.27025 10192 ft 281 kts 220°
2026-04-30 22:05 28.61526 -17.28421 9695 ft 277 kts 220°
2026-04-30 22:05 28.60058 -17.29775 9278 ft 265 kts 219°
2026-04-30 22:05 28.58676 -17.31045 8923 ft 253 kts 220°
2026-04-30 22:06 28.57324 -17.32297 8528 ft 250 kts 220°
2026-04-30 22:06 28.54635 -17.34788 7822 ft 249 kts 220°
2026-04-30 22:06 28.53292 -17.36032 7458 ft 248 kts 220°
2026-04-30 22:07 28.51949 -17.37280 7052 ft 249 kts 220°
2026-04-30 22:07 28.50602 -17.38528 6663 ft 250 kts 219°
2026-04-30 22:07 28.49246 -17.39763 6274 ft 249 kts 219°
2026-04-30 22:07 28.47917 -17.40989 5886 ft 249 kts 220°
2026-04-30 22:08 28.46565 -17.42231 5480 ft 249 kts 219°
2026-04-30 22:08 28.45204 -17.43477 5051 ft 250 kts 221°
2026-04-30 22:08 28.44081 -17.44940 4657 ft 248 kts 239°
2026-04-30 22:08 28.43406 -17.46734 4316 ft 249 kts 256°
2026-04-30 22:09 28.43212 -17.48761 4253 ft 262 kts 270°
2026-04-30 22:09 28.43204 -17.50842 4095 ft 263 kts 270°
2026-04-30 22:09 28.43199 -17.52933 3963 ft 264 kts 270°
2026-04-30 22:09 28.43204 -17.55020 3766 ft 264 kts 270°
2026-04-30 22:10 28.43186 -17.57095 3389 ft 262 kts 269°
2026-04-30 22:10 28.43159 -17.59114 3152 ft 253 kts 269°
2026-04-30 22:10 28.43131 -17.61064 3027 ft 241 kts 269°
2026-04-30 22:10 28.43099 -17.62929 2879 ft 231 kts 269°
2026-04-30 22:11 28.43025 -17.66433 2530 ft 217 kts 269°
2026-04-30 22:11 28.42989 -17.68123 2397 ft 210 kts 269°
2026-04-30 22:11 28.42963 -17.69729 2416 ft 194 kts 269°
2026-04-30 22:12 28.42948 -17.71184 2422 ft 178 kts 270°
2026-04-30 22:12 28.42962 -17.72549 2353 ft 167 kts 278°
2026-04-30 22:12 28.43327 -17.73737 2357 ft 159 kts 303°
2026-04-30 22:12 28.44070 -17.74648 2389 ft 156 kts 324°
2026-04-30 22:13 28.45040 -17.75167 2390 ft 155 kts 347°
2026-04-30 22:13 28.46112 -17.75263 2395 ft 155 kts 359°
2026-04-30 22:13 28.47189 -17.75266 2385 ft 155 kts
2026-04-30 22:13 28.48273 -17.75261 2363 ft 156 kts 359°
2026-04-30 22:14 28.49323 -17.75269 2389 ft 151 kts 359°
2026-04-30 22:14 28.50373 -17.75287 2366 ft 148 kts 359°
2026-04-30 22:14 28.51407 -17.75306 2168 ft 148 kts 358°
2026-04-30 22:14 28.52386 -17.75321 1989 ft 137 kts 359°
2026-04-30 22:15 28.53340 -17.75338 1773 ft 137 kts 358°
2026-04-30 22:15 28.54298 -17.75359 1619 ft 140 kts 359°
2026-04-30 22:15 28.55290 -17.75389 1400 ft 145 kts 357°
2026-04-30 22:15 28.56284 -17.75430 1177 ft 139 kts 358°
2026-04-30 22:16 28.57240 -17.75458 1031 ft 139 kts 358°
2026-04-30 22:16 28.58206 -17.75470 830 ft 137 kts 359°
2026-04-30 22:17 28.61001 -17.75532 273 ft 133 kts 358°
2026-04-30 22:17 28.61915 -17.75543 124 ft 126 kts 359°
2026-04-30 22:17 28.62927 -17.75562 85 ft 26 kts 360°
2026-04-30 22:18 28.63116 -17.75566 83 ft 28 kts 359°
2026-04-30 22:18 28.63460 -17.75576 75 ft 7 kts 359°
2026-04-30 22:19 28.63574 -17.75548 72 ft 11 kts 10°
2026-04-30 22:19 28.63609 -17.75585 76 ft 8 kts 204°
2026-04-30 22:19 28.63420 -17.75572 70 ft 20 kts 179°
2026-04-30 22:20 28.63262 -17.75570 80 ft 25 kts 179°
2026-04-30 22:20 28.62873 -17.75562 87 ft 30 kts 178°
2026-04-30 22:20 28.62694 -17.75552 93 ft 13 kts 162°
2026-04-30 22:21 28.62627 -17.75498 95 ft 11 kts 140°
2026-04-30 22:21 28.62575 -17.75453 95 ft 8 kts 156°
2026-04-30 22:21 28.62526 -17.75445 98 ft 6 kts 176°
2026-04-30 22:21 28.62498 -17.75430 97 ft 4 kts 123°
2026-04-30 22:22 28.62499 -17.75405 96 ft 3 kts 81°
2026-04-30 22:22 28.62500 -17.75379 98 ft 3 kts 90°
2026-04-30 22:22 28.62500 -17.75367 96 ft 0 kts 91°